Location: Betra
(48.4113°N, 8.6634°E)
Time: 19:14:37
(UTC+00:00)

CZ-2D R/B - Pass Details

Date: 23 May 2024
Orbit: 790 x 843 km, 98.8° (Epoch: 24 June)

Event Time Altitude Azimuth Distance (km) Brightness Sun altitude
Rises 01:50:32 0° 13° (NNE) 3,414 6.7 -13.4°
Reaches altitude 10° 01:52:55 10° 11° (N) 2,473 5.7 -13.2°
Maximum altitude 01:58:23 71° 289° (WNW) 888 2.2 -12.6°
Enters shadow 02:02:44 16° 207° (SSW) 2,040 3.6 -12.2°
